Wind_Speed
29 26 24 23 20 20 17 16 14 12 12 12 12 13 14 19 22 25 25 25 25 25 27 27 29 28 28 27 27 26 31 32 32 36 32 27 25 24 22 25 27 26 22
19 21 18 15 16 13 12 11 11 10 9 14 16 18 17 19 19 21 24 24 25 27 28 29 32 28 29 30 29 31 33 34 33 34 35 36 32 28 26 29 27 23 22
15 13 9 10 8 10 12 16 18 14 14 14 14 15 16 17 19 21 22 24 25 25 26 27 29 27 28 27 29 31 34 35 32 33 34 34 35 32 28 31 27 25 26
25 20 26 21 18 14 8 6 6 8 10 10 12 14 14 17 17 21 23 26 29 30 31 31 30 29 29 29 29 31 34 35 33 35 36 36 33 35 33 31 31 28 26
24 24 21 16 11 8 5 3 4 7 9 11 11 12 14 10 16 23 26 28 28 29 29 28 26 26 28 30 32 34 34 34 35 34 32 34 32 31 33 30 29 28 31
18 18 17 13 6 1 5 7 9 7 10 11 13 14 12 13 20 22 23 23 25 25 26 27 27 25 24 24 28 30 31 33 36 36 36 36 33 29 28 29 31 27 31
21 17 14 13 10 9 10 11 11 11 10 12 13 12 13 16 17 17 19 23 23 20 23 24 25 23 24 27 30 30 27 28 32 35 40 39 39 33 31 30 29 29 21
22 21 16 12 13 19 17 18 11 9 9 9 11 10 10 13 15 18 20 21 19 19 22 24 25 23 24 29 34 35 35 35 32 31 35 34 35 36 34 29 26 26 20
15 6 4 4 14 14 12 10 6 7 7 7 7 8 9 12 17 22 23 21 19 22 21 21 19 21 27 31 33 34 35 35 29 29 30 29 29 28 27 27 25 27 26
15 8 10 15 14 9 8 7 5 3 4 4 4 4 9 10 18 24 25 19 19 20 20 21 21 24 29 28 29 32 34 30 24 24 23 24 24 25 25 26 28 33 26
11 13 13 11 9 9 7 5 2 1 2 2 1 4 9 15 18 20 19 19 22 20 23 25 27 28 28 25 22 23 26 24 21 20 18 14 15 16 16 20 21 19 23
14 11 10 10 9 8 6 4 4 3 1 4 6 6 7 10 16 17 16 21 23 21 22 25 26 26 26 23 22 21 18 17 17 15 14 14 13 16 18 20 21 22 20
12 11 11 11 10 7 5 4 3 5 3 4 6 6 7 9 13 17 14 16 17 19 21 23 24 22 24 25 23 23 17 14 8 8 7 7 8 10 13 16 18 17 15
13 12 12 11 9 7 5 4 4 4 4 5 5 6 7 10 17 21 19 17 15 17 18 25 21 22 23 27 29 25 24 21 17 10 8 5 5 7 8 8 9 11 13
12 12 11 10 9 8 8 6 6 8 8 4 3 5 6 9 17 23 23 22 20 17 17 19 26 31 31 25 24 26 23 22 23 17 14 13 14 13 11 12 16 12 14
13 12 10 9 7 6 7 8 8 4 4 4 6 7 6 9 13 14 16 20 20 17 14 15 21 30 29 28 25 24 22 21 20 19 19 23 27 28 29 29 26 21 20
12 11 10 9 8 7 6 6 5 2 4 5 5 6 8 9 12 16 14 15 19 14 12 13 15 15 19 29 28 21 22 18 15 16 16 16 17 17 17 23 21 23 21
12 14 10 9 8 7 6 5 4 3 4 4 5 8 10 9 12 14 14 13 14 13 9 11 14 16 14 12 15 20 27 17 13 14 11 12 12 10 8 14 14 20 18
13 12 11 9 8 7 6 5 5 5 4 5 5 8 6 10 11 10 12 9 9 9 9 9 12 13 15 13 7 11 11 21 21 18 12 17 17 14 9 11 14 13 11
13 13 13 10 9 8 7 6 6 5 5 5 6 4 4 8 9 8 9 10 6 8 9 10 9 10 14 12 13 10 8 12 13 16 15 15 12 11 10 15 15 12 8
13 13 16 12 11 10 10 8 6 6 6 5 6 7 9 8 6 8 7 8 7 8 9 10 12 10 10 10 9 10 10 10 10 7 9 5 9 5 5 5 8 5 5
13 14 14 15 13 12 11 10 9 9 8 7 6 8 9 8 6 6 8 6 6 8 8 9 8 8 10 9 6 7 6 7 7 6 7 7 9 10 5 5 4 5 4
14 14 17 16 15 15 15 13 12 13 11 10 9 7 9 9 11 8 7 9 6 7 6 8 7 8 6 9 6 6 5 7 5 6 5 5 4 5 10 1 3 3 2
17 18 18 19 19 19 19 14 14 14 11 12 11 10 10 8 8 7 8 7 7 6 6 5 5 4 5 4 4 8 0 5 2 4 5 7 7 4 7 6 3 4 6
16 17 16 21 19 20 21 20 14 16 14 15 10 10 9 9 9 6 6 6 6 6 6 5 5 5 5 5 4 5 8 7 4 4 4 5 5 6 7 6 5 6 7
17 16 16 14 14 18 22 19 16 15 15 15 13 11 9 11 13 8 6 9 10 6 6 6 6 7 7 7 7 10 10 7 6 6 5 5 7 8 6 6 8 8 11
Wind_Direction
208 210 208 213 217 219 217 221 233 241 247 256 260 265 263 258 258 264 271 278 287 287 283 284 284 286 288 285 286 278 272 271 259 269 272 277 272 281 249 244 246 251 247
202 206 203 206 200 204 205 206 213 232 235 244 246 257 270 282 285 285 288 287 287 286 286 284 283 284 273 274 276 273 272 270 274 268 267 266 267 266 257 247 241 251 249
163 208 179 184 199 184 186 202 216 229 240 258 275 281 285 286 291 294 294 296 294 292 292 290 289 286 283 281 277 274 271 272 274 273 270 265 264 258 262 254 251 250 229
165 184 171 184 194 205 220 238 262 265 260 275 283 283 291 299 306 289 291 294 294 297 297 295 291 287 287 290 283 275 274 275 278 271 268 264 262 263 259 258 250 249 243
159 171 171 157 165 188 192 248 285 277 284 287 284 296 296 321 288 290 299 303 304 304 303 301 298 291 285 281 280 284 281 275 273 275 278 271 267 262 259 257 250 248 246
141 139 126 110 111 32 340 326 291 297 308 294 297 302 310 297 294 301 307 315 318 317 316 314 311 307 307 298 290 282 277 279 279 275 272 268 267 264 263 257 253 241 245
118 97 85 87 81 21 3 333 299 295 306 310 304 311 309 303 308 319 321 322 322 318 313 312 305 304 299 291 286 285 280 280 272 273 270 266 259 259 258 258 252 243 239
106 91 73 42 359 338 304 270 280 288 315 307 308 316 322 331 336 338 338 335 331 309 314 316 313 304 298 294 296 293 289 285 281 272 269 270 266 263 256 257 261 236 219
119 108 13 10 306 256 246 252 259 311 304 311 325 342 4 338 0 351 350 349 333 327 323 329 324 314 303 304 302 301 295 293 284 277 270 270 266 264 256 248 239 215 206
152 151 248 249 230 230 237 249 265 283 290 344 359 6 2 6 1 358 358 0 340 338 335 334 328 316 314 308 309 307 302 298 288 289 278 271 269 260 250 241 234 223 213
152 164 170 184 195 198 194 198 206 97 51 49 17 359 8 356 354 359 5 7 358 352 343 338 339 338 338 330 326 322 305 296 287 284 279 281 266 242 231 217 215 226 222
151 158 158 165 159 167 165 112 121 112 96 33 42 36 16 11 349 354 8 15 7 360 349 346 347 346 351 351 346 340 329 302 288 282 286 275 253 227 217 207 206 219 216
151 148 147 149 145 132 119 103 93 85 104 77 49 35 22 9 5 360 12 17 9 0 359 358 359 5 8 7 3 5 357 355 326 254 263 239 214 220 233 216 223 217 218
152 146 140 139 138 129 117 121 127 120 101 80 55 37 32 23 15 23 22 9 10 2 8 12 20 17 22 24 27 27 26 21 10 19 52 100 156 172 177 194 205 205 213
149 150 144 143 135 137 148 134 131 140 135 93 74 41 48 22 26 29 27 22 19 23 24 17 33 38 36 31 30 36 39 48 55 63 74 82 87 98 131 145 143 143 136
155 155 157 162 146 157 133 152 149 103 61 72 65 51 25 22 12 12 19 28 26 37 33 26 28 36 38 39 40 40 41 48 55 63 59 64 68 66 70 88 89 79 73
161 167 169 167 172 173 184 200 206 283 6 24 36 37 26 24 25 21 17 13 28 33 16 20 21 19 28 40 43 51 51 56 59 54 53 62 76 73 73 64 70 68 54
172 176 174 179 185 184 189 202 214 238 256 271 324 7 10 13 14 12 21 21 18 19 8 22 15 12 22 36 44 54 52 52 50 69 71 57 47 50 84 104 102 114 112
178 183 180 190 191 191 199 213 228 240 255 269 287 287 331 347 348 2 1 347 3 11 11 5 9 9 21 11 25 46 62 54 57 67 72 79 60 57 78 109 123 137 146
187 191 189 198 206 208 214 230 238 245 252 264 278 292 318 326 342 338 5 3 343 3 360 10 359 1 6 16 9 12 48 49 71 68 72 75 81 81 98 90 80 108 173
194 208 199 204 215 222 226 231 242 254 258 276 277 251 286 308 310 331 326 346 350 5 2 359 0 3 9 13 13 28 21 32 30 31 36 65 47 64 63 33 32 35 130
207 213 215 214 222 228 232 235 240 248 256 269 282 271 286 305 291 287 312 321 333 341 332 337 351 356 354 5 20 24 30 21 33 24 27 47 43 37 51 38 51 71 67
218 221 219 217 224 232 236 238 241 240 265 263 258 253 281 280 296 273 305 316 304 321 326 333 333 341 1 355 14 14 24 21 14 5 23 13 29 14 7 139 32 38 63
228 230 233 232 233 233 244 228 242 231 254 253 257 249 265 273 277 284 287 292 302 303 311 311 319 330 343 336 333 325 345 337 358 340 16 358 339 345 350 349 322 345 339
233 247 245 246 228 237 238 239 230 248 239 237 246 257 246 283 268 293 306 281 297 295 282 298 291 299 303 314 304 296 300 314 299 258 328 343 322 328 323 334 334 319 324
232 242 253 253 240 238 238 233 229 226 233 260 235 253 265 270 263 290 296 281 264 275 264 289 278 280 281 286 251 290 301 294 276 280 288 298 302 306 299 303 314 300 304
Height
1487 1491 1494 1497 1502 1503 1506 1508 1513 1516 1517 1519 1519 1519 1518 1516 1514 1513 1512 1511 1510 1508 1506 1505 1502 1501 1499 1496 1494 1492 1491 1488 1484 1483 1484 1485 1485 1483 1482 1481 1481 1481 1482
1492 1498 1497 1500 1500 1502 1504 1506 1507 1511 1512 1514 1514 1512 1511 1510 1509 1507 1506 1503 1501 1499 1497 1495 1494 1493 1490 1489 1488 1485 1483 1481 1479 1475 1477 1475 1476 1477 1475 1475 1474 1474 1475
1485 1496 1496 1498 1505 1502 1502 1505 1503 1507 1508 1508 1508 1507 1508 1505 1504 1503 1500 1497 1495 1493 1489 1487 1485 1484 1481 1480 1477 1476 1474 1472 1471 1468 1465 1466 1465 1467 1466 1464 1465 1466 1468
1468 1493 1486 1489 1495 1499 1501 1504 1505 1506 1505 1504 1504 1504 1502 1500 1499 1497 1494 1490 1489 1486 1482 1478 1476 1475 1473 1471 1469 1467 1465 1463 1461 1459 1457 1456 1456 1455 1457 1457 1456 1458 1460
1477 1478 1481 1483 1491 1498 1497 1500 1502 1504 1503 1503 1502 1500 1499 1494 1492 1492 1490 1486 1483 1478 1475 1471 1469 1467 1464 1462 1461 1458 1457 1454 1452 1450 1447 1446 1445 1446 1445 1448 1448 1449 1448
1484 1483 1481 1479 1491 1497 1496 1502 1501 1499 1501 1502 1499 1497 1494 1489 1489 1488 1485 1481 1476 1471 1468 1466 1463 1460 1457 1456 1454 1451 1449 1446 1443 1442 1439 1438 1436 1437 1439 1440 1441 1441 1439
1479 1484 1486 1487 1493 1497 1498 1500 1502 1500 1499 1497 1496 1493 1490 1487 1487 1484 1481 1475 1471 1468 1465 1462 1459 1456 1453 1448 1444 1441 1437 1436 1434 1432 1428 1427 1427 1429 1431 1431 1433 1433 1436
1474 1478 1484 1487 1491 1488 1498 1503 1504 1500 1493 1494 1493 1489 1488 1485 1484 1480 1476 1471 1467 1464 1461 1458 1454 1450 1447 1441 1435 1431 1428 1426 1424 1422 1418 1416 1417 1419 1421 1423 1424 1428 1429
1472 1475 1482 1487 1489 1490 1497 1501 1500 1492 1494 1493 1490 1488 1487 1485 1482 1476 1472 1467 1466 1462 1458 1454 1451 1446 1440 1435 1428 1422 1419 1415 1414 1412 1410 1409 1409 1410 1411 1414 1416 1418 1421
1473 1473 1473 1482 1486 1491 1493 1497 1494 1492 1492 1491 1489 1488 1487 1485 1479 1474 1470 1467 1465 1460 1456 1452 1448 1441 1434 1428 1423 1416 1410 1407 1406 1405 1402 1401 1400 1401 1403 1406 1407 1410 1414
1474 1479 1476 1482 1486 1490 1493 1494 1491 1490 1491 1491 1491 1490 1486 1484 1480 1476 1471 1468 1464 1459 1455 1449 1443 1437 1429 1424 1418 1412 1406 1401 1400 1399 1398 1396 1396 1397 1400 1402 1404 1409 1410
1477 1479 1478 1483 1485 1489 1491 1488 1488 1490 1492 1491 1490 1490 1489 1486 1481 1476 1471 1467 1464 1460 1455 1449 1442 1435 1429 1421 1415 1409 1402 1398 1396 1395 1394 1394 1394 1394 1396 1400 1403 1406 1409
1476 1477 1480 1483 1485 1486 1487 1488 1490 1490 1493 1492 1491 1490 1488 1486 1481 1474 1470 1467 1465 1461 1456 1450 1443 1436 1429 1422 1415 1409 1402 1397 1394 1393 1393 1393 1392 1394 1397 1400 1403 1405 1407
1476 1478 1480 1483 1485 1488 1490 1492 1492 1492 1492 1491 1491 1490 1488 1486 1480 1474 1469 1467 1464 1462 1457 1451 1444 1439 1432 1426 1419 1413 1407 1403 1399 1397 1395 1395 1394 1395 1396 1400 1403 1406 1407
1476 1479 1481 1485 1487 1488 1490 1490 1490 1489 1489 1490 1490 1489 1487 1485 1479 1475 1471 1467 1464 1462 1459 1456 1449 1442 1436 1431 1427 1421 1415 1412 1408 1405 1403 1400 1399 1399 1397 1401 1404 1408 1409
1477 1481 1484 1485 1486 1488 1488 1488 1489 1489 1489 1488 1488 1487 1485 1483 1480 1478 1474 1470 1466 1464 1462 1458 1454 1448 1441 1436 1431 1427 1424 1421 1418 1415 1413 1411 1409 1408 1407 1402 1406 1413 1411
1478 1481 1482 1485 1486 1487 1489 1489 1489 1488 1489 1488 1488 1487 1485 1483 1481 1478 1474 1471 1468 1465 1464 1461 1458 1454 1449 1444 1438 1434 1431 1429 1426 1424 1421 1419 1418 1415 1413 1410 1414 1418 1420
1477 1479 1482 1484 1486 1486 1487 1488 1488 1488 1488 1486 1487 1486 1484 1483 1480 1478 1475 1472 1469 1467 1466 1463 1461 1456 1453 1450 1447 1443 1439 1435 1431 1430 1429 1427 1426 1425 1425 1425 1424 1428 1431
1475 1478 1480 1483 1484 1485 1486 1487 1487 1487 1487 1486 1485 1483 1482 1481 1479 1478 1476 1473 1471 1468 1467 1464 1462 1459 1457 1453 1451 1447 1445 1442 1440 1436 1435 1433 1432 1431 1431 1433 1434 1435 1437
1474 1477 1479 1481 1482 1484 1484 1485 1484 1485 1484 1483 1483 1482 1481 1481 1479 1477 1475 1473 1471 1469 1467 1464 1463 1461 1459 1456 1453 1451 1449 1447 1445 1444 1442 1440 1439 1439 1439 1438 1438 1438 1441
1472 1474 1476 1478 1479 1480 1481 1482 1482 1482 1482 1481 1481 1480 1480 1479 1478 1476 1474 1473 1471 1469 1468 1466 1463 1461 1460 1459 1457 1455 1452 1450 1450 1449 1447 1446 1444 1443 1442 1442 1443 1442 1444
1470 1472 1473 1475 1476 1477 1478 1479 1480 1480 1480 1479 1479 1478 1478 1476 1476 1474 1473 1472 1470 1469 1468 1466 1464 1463 1462 1460 1459 1458 1456 1455 1454 1452 1452 1450 1449 1448 1448 1448 1448 1447 1447
1466 1468 1469 1470 1472 1474 1474 1476 1476 1477 1476 1476 1475 1475 1475 1474 1473 1472 1471 1469 1468 1468 1467 1466 1464 1463 1462 1460 1459 1459 1458 1456 1456 1454 1453 1452 1451 1451 1450 1449 1449 1449 1449
1462 1463 1465 1466 1468 1469 1470 1470 1473 1473 1473 1473 1472 1472 1472 1471 1470 1469 1469 1468 1468 1467 1466 1465 1464 1464 1463 1461 1460 1458 1458 1457 1456 1456 1455 1454 1452 1452 1451 1450 1450 1450 1450
1458 1459 1459 1459 1459 1464 1465 1466 1467 1468 1468 1469 1468 1468 1468 1468 1468 1466 1467 1466 1466 1465 1465 1464 1464 1463 1462 1461 1460 1459 1457 1456 1456 1455 1455 1454 1453 1452 1451 1450 1450 1449 1448
1453 1454 1454 1454 1455 1456 1458 1460 1462 1464 1464 1464 1465 1465 1465 1465 1464 1465 1465 1464 1462 1462 1462 1462 1461 1461 1461 1460 1458 1457 1456 1455 1454 1454 1453 1453 1452 1451 1450 1450 1449 1447 1447